Regional Weather Roundup
Issued by NWS State College, PA

Home | Current Version | Previous Version | Graphics & Text | Print | Product List | Glossary Off
Versions: 1 2 3 4 5 6 7 8 9 10 11 12 13 14 15 16 17 18 19 20 21 22 23 24 25 26 27 28 29 30 31 32 33 34 35 36 37 38 39 40 41 42 43 44 45 46 47 48 49 50

000
ASUS41 KCTP 221703
RWRCTP

REGIONAL WEATHER ROUNDUP
NATIONAL WEATHER SERVICE STATE COLLEGE PA
100 PM EDT SUN OCT 22 2017

Note: "fair" indicates few or no clouds below 12,000 feet with no
significant weather and/or obstructions to visibility.

* = STATION THAT DOES NOT REPORT PRECIPITATION /E.G. RAIN...SNOW...ETC/
    THUNDER OR FOG.

PAZ002>004-007>009-013>016-020>023-029>032-221800-
WESTERN PENNSYLVANIA

CITY           SKY/WX    TMP DP  RH WIND       PRES   REMARKS
ERIE           SUNNY     75  53  46 S13       30.23F
MEADVILLE      SUNNY     71  53  52 VRB5      30.27F
FRANKLIN*      SUNNY     69  53  56 S8        30.29F
NEW CASTLE     FAIR      73  53  49 VRB5      30.27F
BEAVER COUNTY  NOT AVBL
BUTLER*        SUNNY     71  53  52 VRB3      30.29F
PITTSBURGH INT PTSUNNY   72  52  49 VRB6      30.27F
PITTSBURGH     SUNNY     72  50  45 S6        30.27F
INDIANA*       SUNNY     72  52  49 VRB5G12   30.33F
LATROBE        SUNNY     73  52  46 CALM      30.31F
WASHINGTON CO* SUNNY     73  51  46 S6        30.29F
$$

PAZ004>006-010>012-017>019-024>028-033>037-041-042-045-046-049>053-221800-
CENTRAL PENNSYLVANIA

CITY           SKY/WX    TMP DP  RH WIND       PRES   REMARKS
BRADFORD       SUNNY     69  49  48 SW8       30.32S
DUBOIS         SUNNY     72  50  45 VRB5      30.30F
CLEARFIELD     SUNNY     73  51  46 SE6       30.32F
JOHNSTOWN      SUNNY     68  50  52 S9G22     30.33F
ALTOONA        SUNNY     73  52  47 S9        30.34F
STATE COLLEGE  SUNNY     70  52  52 S9        30.34F
WILLIAMSPORT   SUNNY     71  50  47 CALM      30.34F
SELINSGROVE    SUNNY     70  55  59 CALM      30.35F
FT INDIANTOWN  SUNNY     71  50  48 CALM      30.36F
CAPITAL CITY   SUNNY     72  51  47 E9        30.35F
HARRISBURG     MOSUNNY   72  53  51 SE7       30.35F
YORK           SUNNY     73  53  49 SE10      30.35F
$$

PAZ038>040-043-044-047-048-054-055-060>062-067>071-221800-
EASTERN PENNSYLVANIA

CITY           SKY/WX    TMP DP  RH WIND       PRES   REMARKS
SCRANTON       SUNNY     74  43  32 VRB7      30.36F
MOUNT POCONO   SUNNY     68  40  35 S10       30.40F
ALLENTOWN      SUNNY     73  49  42 VRB6      30.38F
QUAKERTOWN*    SUNNY     72  46  40 S6        30.40F
READING        SUNNY     73  51  46 MISG      30.37F
LANCASTER      SUNNY     73  46  38 SE12      30.37F
COATESVILLE    SUNNY     72  45  37 VRB7      30.40F
POTTSTOWN      SUNNY     70  48  45 CALM      30.40F
BLUE BELL      SUNNY     72  48  43 SW6       30.40F
DOYLESTOWN     SUNNY     72  43  35 S6        30.38F
WILLOW GROVE   NOT AVBL
NORTH PHILA    SUNNY     74  50  42 VRB5      30.41F
PHILADELPHIA   PTSUNNY   73  49  42 CALM      30.39F
$$




USA.gov is the U.S. government's official web portal to all federal, state and local government web resources and services.